When you browse on this site, cookies collect data to enhance your experience and personalize the content and advertising you see.
Visit our Privacy Policy to learn more. By continuing to use the site, you agree to this use of cookies and data.
  • In Österreich
  • Länderverzeichnis
  • Für 7 Tage
  • Wassertemperatur
  • Wetterkarte
  • News
  • Widgets
  • user-avatar
    Anmelden

    Stündliche Wetter Ciudad Bolívar

    Heute, 26 Januar, Sonntag

    Zeit Temperatur Niederschläge Wind Luftdruck Luftfeuchtigkeit
    00:00 +28°C° 0 mm 5 m/S 753 mmHg 67%
    01:00 +27°C° 0 mm 5 m/S 753 mmHg 71%
    02:00 +26°C° 0 mm 4 m/S 752 mmHg 76%
    03:00 +25°C° 0 mm 4 m/S 753 mmHg 79%
    04:00 +25°C° 0 mm 4 m/S 753 mmHg 82%
    05:00 +25°C° 0 mm 3 m/S 753 mmHg 84%
    06:00 +25°C° 0 mm 3 m/S 753 mmHg 83%
    07:00 +25°C° 0 mm 4 m/S 754 mmHg 82%
    08:00 +25°C° 0 mm 4 m/S 754 mmHg 80%
    09:00 +27°C° 0 mm 4 m/S 754 mmHg 71%
    10:00 +29°C° 0 mm 4 m/S 754 mmHg 62%
    11:00 +32°C° 0 mm 4 m/S 755 mmHg 53%
    12:00 +34°C° 0 mm 3 m/S 754 mmHg 46%
    13:00 +35°C° 0 mm 3 m/S 752 mmHg 39%
    14:00 +36°C° 0 mm 3 m/S 751 mmHg 32%
    15:00 +36°C° 0 mm 3 m/S 751 mmHg 32%
    16:00 +36°C° 0 mm 3 m/S 751 mmHg 32%
    17:00 +36°C° 0 mm 3 m/S 750 mmHg 32%
    18:00 +35°C° 0 mm 3 m/S 751 mmHg 36%
    19:00 +33°C° 0 mm 4 m/S 751 mmHg 41%
    20:00 +32°C° 0 mm 5 m/S 751 mmHg 45%
    21:00 +30°C° 0 mm 5 m/S 752 mmHg 51%
    22:00 +29°C° 0 mm 5 m/S 752 mmHg 57%
    23:00 +28°C° 0 mm 6 m/S 753 mmHg 63%

    Morgen, 27 Januar, Montag

    Zeit Temperatur Niederschläge Wind Luftdruck Luftfeuchtigkeit
    00:00 +28°C° 0 mm 6 m/S 753 mmHg 69%
    01:00 +27°C° 0 mm 5 m/S 752 mmHg 74%
    02:00 +26°C° 0 mm 5 m/S 752 mmHg 79%
    03:00 +26°C° 0 mm 4 m/S 752 mmHg 81%
    04:00 +26°C° 0 mm 4 m/S 752 mmHg 83%
    05:00 +26°C° 0 mm 4 m/S 752 mmHg 84%
    06:00 +26°C° 0 mm 4 m/S 753 mmHg 83%
    07:00 +26°C° 0 mm 4 m/S 753 mmHg 81%
    08:00 +27°C° 0 mm 4 m/S 754 mmHg 80%
    09:00 +29°C° 0 mm 4 m/S 754 mmHg 72%
    10:00 +30°C° 0 mm 4 m/S 754 mmHg 64%
    11:00 +33°C° 0 mm 4 m/S 754 mmHg 56%
    12:00 +34°C° 0 mm 3 m/S 753 mmHg 53%
    13:00 +35°C° 0 mm 3 m/S 752 mmHg 49%
    14:00 +36°C° 0 mm 3 m/S 751 mmHg 45%
    15:00 +36°C° 0 mm 3 m/S 751 mmHg 44%
    16:00 +36°C° 0 mm 3 m/S 750 mmHg 43%
    17:00 +36°C° 0 mm 3 m/S 750 mmHg 42%
    18:00 +35°C° 0 mm 4 m/S 750 mmHg 47%
    19:00 +34°C° 0 mm 4 m/S 751 mmHg 52%
    20:00 +33°C° 0 mm 5 m/S 751 mmHg 57%
    21:00 +32°C° 0 mm 5 m/S 752 mmHg 62%
    22:00 +30°C° 0 mm 5 m/S 752 mmHg 67%
    23:00 +29°C° 0 mm 5 m/S 753 mmHg 72%

    übermorgen, 28 Januar, Dienstag

    Zeit Temperatur Niederschläge Wind Luftdruck Luftfeuchtigkeit
    00:00 +28°C° 0 mm 5 m/S 752 mmHg 75%
    01:00 +28°C° 0 mm 4 m/S 752 mmHg 78%
    02:00 +27°C° 0 mm 4 m/S 752 mmHg 81%
    03:00 +27°C° 0 mm 4 m/S 752 mmHg 83%
    04:00 +26°C° 0 mm 4 m/S 752 mmHg 84%
    05:00 +26°C° 0 mm 4 m/S 752 mmHg 86%
    06:00 +27°C° 0 mm 4 m/S 752 mmHg 83%
    07:00 +27°C° 0 mm 4 m/S 753 mmHg 80%
    08:00 +27°C° 0 mm 4 m/S 753 mmHg 77%
    09:00 +29°C° 0 mm 4 m/S 753 mmHg 71%
    10:00 +30°C° 0 mm 4 m/S 754 mmHg 65%
    11:00 +32°C° 0 mm 4 m/S 754 mmHg 59%
    12:00 +33°C° 0 mm 3 m/S 753 mmHg 55%
    13:00 +34°C° 0 mm 3 m/S 752 mmHg 50%
    14:00 +35°C° 0 mm 3 m/S 751 mmHg 46%
    15:00 +36°C° 0 mm 3 m/S 750 mmHg 44%
    16:00 +36°C° 0 mm 3 m/S 750 mmHg 43%
    17:00 +36°C° 0 mm 3 m/S 749 mmHg 41%
    18:00 +35°C° 0 mm 4 m/S 750 mmHg 47%
    19:00 +34°C° 0 mm 5 m/S 750 mmHg 52%
    20:00 +32°C° 0 mm 5 m/S 751 mmHg 58%
    21:00 +30°C° 0 mm 5 m/S 751 mmHg 62%
    22:00 +30°C° 0 mm 5 m/S 751 mmHg 66%
    23:00 +29°C° 0 mm 5 m/S 752 mmHg 70%

    29 Januar, Mittwoch

    Zeit Temperatur Niederschläge Wind Luftdruck Luftfeuchtigkeit
    00:00 +28°C° 0 mm 5 m/S 752 mmHg 71%
    01:00 +28°C° 0 mm 5 m/S 751 mmHg 73%
    02:00 +27°C° 0 mm 5 m/S 751 mmHg 74%
    03:00 +27°C° 0 mm 4 m/S 751 mmHg 75%
    04:00 +27°C° 0 mm 4 m/S 751 mmHg 77%
    05:00 +26°C° 0 mm 3 m/S 751 mmHg 78%
    06:00 +27°C° 0 mm 3 m/S 752 mmHg 76%
    07:00 +27°C° 0 mm 4 m/S 753 mmHg 73%
    08:00 +28°C° 0 mm 4 m/S 753 mmHg 71%
    09:00 +30°C° 0 mm 4 m/S 753 mmHg 63%
    10:00 +32°C° 0 mm 4 m/S 753 mmHg 55%
    11:00 +34°C° 0 mm 4 m/S 753 mmHg 46%
    12:00 +36°C° 0 mm 4 m/S 752 mmHg 42%
    13:00 +37°C° 0 mm 4 m/S 751 mmHg 37%
    14:00 +38°C° 0 mm 4 m/S 750 mmHg 32%
    15:00 +38°C° 0 mm 4 m/S 750 mmHg 32%
    16:00 +38°C° 0 mm 4 m/S 749 mmHg 33%
    17:00 +39°C° 0 mm 5 m/S 749 mmHg 34%
    18:00 +36°C° 0 mm 5 m/S 749 mmHg 40%
    19:00 +35°C° 0 mm 5 m/S 750 mmHg 45%
    20:00 +33°C° 0 mm 6 m/S 751 mmHg 51%
    21:00 +32°C° 0 mm 6 m/S 751 mmHg 56%
    22:00 +30°C° 0 mm 6 m/S 751 mmHg 61%
    23:00 +29°C° 0 mm 6 m/S 752 mmHg 66%

    30 Januar, Donnerstag

    Zeit Temperatur Niederschläge Wind Luftdruck Luftfeuchtigkeit
    00:00 +29°C° 0 mm 6 m/S 751 mmHg 69%
    01:00 +28°C° 0 mm 5 m/S 751 mmHg 71%
    02:00 +27°C° 0 mm 5 m/S 751 mmHg 74%
    03:00 +27°C° 0 mm 4 m/S 751 mmHg 75%
    04:00 +27°C° 0 mm 4 m/S 751 mmHg 75%
    05:00 +26°C° 0 mm 4 m/S 751 mmHg 76%
    06:00 +27°C° 0 mm 4 m/S 752 mmHg 74%
    07:00 +27°C° 0 mm 4 m/S 753 mmHg 72%
    08:00 +27°C° 0 mm 4 m/S 753 mmHg 71%
    09:00 +29°C° 0 mm 4 m/S 753 mmHg 62%
    10:00 +32°C° 0 mm 5 m/S 753 mmHg 54%
    11:00 +34°C° 0 mm 5 m/S 753 mmHg 46%
    12:00 +35°C° 0 mm 5 m/S 752 mmHg 43%
    13:00 +37°C° 0 mm 5 m/S 752 mmHg 40%
    14:00 +39°C° 0 mm 5 m/S 751 mmHg 36%
    15:00 +37°C° 0 mm 5 m/S 750 mmHg 37%
    16:00 +37°C° 0 mm 5 m/S 750 mmHg 38%
    17:00 +36°C° 0 mm 5 m/S 749 mmHg 39%
    18:00 +35°C° 0 mm 5 m/S 750 mmHg 43%
    19:00 +34°C° 0 mm 5 m/S 751 mmHg 47%
    20:00 +32°C° 0 mm 5 m/S 751 mmHg 52%
    21:00 +30°C° 0 mm 6 m/S 752 mmHg 55%
    22:00 +30°C° 0 mm 6 m/S 752 mmHg 59%
    23:00 +29°C° 0 mm 6 m/S 752 mmHg 63%

    31 Januar, Freitag

    Zeit Temperatur Niederschläge Wind Luftdruck Luftfeuchtigkeit
    00:00 +28°C° 0 mm 6 m/S 752 mmHg 67%
    01:00 +27°C° 0 mm 5 m/S 752 mmHg 70%
    02:00 +27°C° 0 mm 5 m/S 752 mmHg 74%
    03:00 +26°C° 0 mm 5 m/S 752 mmHg 76%
    04:00 +26°C° 0 mm 5 m/S 752 mmHg 78%
    05:00 +26°C° 0 mm 4 m/S 752 mmHg 79%
    06:00 +26°C° 0 mm 5 m/S 753 mmHg 77%
    07:00 +27°C° 0 mm 5 m/S 753 mmHg 75%
    08:00 +27°C° 0 mm 5 m/S 754 mmHg 72%
    09:00 +29°C° 0 mm 5 m/S 754 mmHg 63%
    10:00 +32°C° 0 mm 5 m/S 754 mmHg 53%
    11:00 +34°C° 0 mm 5 m/S 754 mmHg 44%
    12:00 +35°C° 0 mm 5 m/S 753 mmHg 40%
    13:00 +37°C° 0 mm 5 m/S 752 mmHg 35%
    14:00 +39°C° 0 mm 5 m/S 751 mmHg 31%
    15:00 +39°C° 0 mm 5 m/S 751 mmHg 33%
    16:00 +37°C° 0 mm 5 m/S 750 mmHg 34%
    17:00 +38°C° 0 mm 6 m/S 750 mmHg 36%
    18:00 +35°C° 0 mm 6 m/S 750 mmHg 41%
    19:00 +34°C° 0 mm 6 m/S 751 mmHg 47%
    20:00 +32°C° 0 mm 6 m/S 751 mmHg 52%
    21:00 +30°C° 0 mm 6 m/S 752 mmHg 57%
    22:00 +29°C° 0 mm 6 m/S 753 mmHg 63%
    23:00 +28°C° 0 mm 6 m/S 753 mmHg 68%
    Mehr zeigen